1514448001.04,43256,5.44,71330.5,-5.91,-7.15,-7.15,0,*5B
1514448002.24,43257,5.38,71346.5,-5.91,-7.23,-7.11,0,*5B
1514448003.47,43258,5.38,71354.8,-5.93,-7.15,-7.19,0,*5B
1514448004.7,43259,5.38,71358.0,-5.93,-7.15,-7.15,0,*56
1514448005.96,43260,5.38,71346.0,-5.93,-7.05,-7.05,0,*5C
1514448007.21,43261,5.44,71360.0,-5.93,-7.01,-6.89,0,*5C
1514448008.49,43262,5.38,71366.0,-5.93,-6.93,-6.93,0,*5E
1514448009.72,43263,5.44,71378.3,-5.91,-6.97,-6.89,0,*52
1514448010.97,43264,5.38,71380.5,-5.91,-6.97,-6.97,0,*5A
1514448012.23,43265,5.38,71372.3,-5.93,-7.05,-7.05,0,*59
1514448013.51,43266,5.38,71376.5,-5.93,-6.93,-6.93,0,*5A
1514448014.74,43267,5.38,71376.8,-5.91,-7.11,-7.01,0,*58
1514448015.94,43268,5.38,71350.8,-5.91,-7.23,-7.23,0,*56
1514448017.19,43269,5.38,71354.0,-5.91,-7.01,-6.97,0,*59
1514448018.44,43270,5.38,71374.8,-5.91,-6.97,-6.97,0,*5F
1514448019.69,43271,5.38,71370.3,-5.91,-7.01,-7.01,0,*5E
1514448020.91,43272,5.38,71372.0,-5.91,-7.15,-7.01,0,*58
1514448022.12,43273,5.38,71362.8,-5.91,-7.11,-7.11,0,*5C
1514448023.33,43274,5.38,71356.3,-5.91,-7.11,-7.11,0,*5B
1514448024.55,43275,5.44,71356.0,-5.91,-6.97,-6.89,0,*55
1514448025.75,43276,5.38,71358.0,-5.91,-6.89,-6.85,0,*55
1514448026.95,43277,5.38,71362.3,-5.91,-6.89,-6.89,0,*58
1514448028.17,43278,5.38,71348.8,-5.91,-6.97,-6.89,0,*58
1514448029.44,43279,5.44,71336.3,-5.89,-7.05,-6.97,0,*55
1514448030.65,43280,5.38,71348.5,-5.91,-7.11,-7.11,0,*50
1514448031.9,43281,5.38,71348.5,-5.93,-7.15,-7.01,0,*56
1514448033.15,43282,5.38,71338.3,-5.91,-7.01,-7.01,0,*52
1514448034.36,43283,5.38,71340.3,-5.91,-7.11,-7.11,0,*53
1514448035.56,43284,5.38,71332.3,-5.91,-7.23,-7.15,0,*51
1514448036.76,43285,5.44,71332.8,-5.91,-7.23,-7.11,0,*54
1514448037.96,43286,5.38,71338.3,-5.91,-6.89,-6.85,0,*5A
1514448039.21,43287,5.38,71338.5,-5.91,-7.01,-6.97,0,*59
1514448040.41,43288,5.38,71350.8,-5.91,-6.89,-6.77,0,*59
1514448041.61,43289,5.38,71352.3,-5.91,-6.77,-6.85,0,*54
1514448042.86,43290,5.38,71348.5,-5.89,-6.93,-6.85,0,*5F
1514448044.13,43291,5.44,71332.8,-5.89,-7.05,-6.97,0,*53
1514448045.39,43292,5.38,71322.3,-5.89,-7.05,-7.05,0,*5A
1514448046.66,43293,5.38,71326.3,-5.89,-6.97,-6.97,0,*5B
1514448047.89,43294,5.38,71320.0,-5.91,-6.97,-6.85,0,*56
1514448049.14,43295,5.44,71328.8,-5.91,-7.01,-7.01,0,*54
1514448050.39,43296,5.44,71336.0,-5.91,-6.97,-6.97,0,*57
1514448051.61,43297,5.38,71348.8,-5.91,-6.97,-6.89,0,*59
1514448052.84,43298,5.38,71352.3,-5.89,-6.81,-6.81,0,*50
1514448054.07,43299,5.44,71356.3,-5.91,-6.97,-6.89,0,*57
1514448055.34,43300,5.38,71368.8,-5.89,-6.93,-6.97,0,*54
1514448056.59,43301,5.38,71354.5,-5.87,-7.05,-6.97,0,*55
1514448057.84,43302,5.38,71354.8,-5.89,-6.97,-6.85,0,*51
1514448059.06,43303,5.38,71352.3,-5.91,-6.97,-6.89,0,*55
1514448060.29,43304,5.38,71354.3,-5.91,-7.01,-7.11,0,*5C
1514448061.54,43305,5.38,71354.5,-5.87,-7.05,-6.97,0,*51
1514448062.81,43306,5.38,71358.3,-5.89,-6.97,-6.93,0,*52
1514448064.09,43307,5.44,71360.3,-5.89,-6.93,-6.93,0,*57
1514448065.36,43308,5.38,71364.5,-5.89,-7.05,-6.97,0,*52
1514448066.61,43309,5.38,71368.0,-5.89,-6.93,-6.85,0,*5E
1514448067.88,43310,5.38,71360.5,-5.89,-6.93,-6.93,0,*51
1514448069.15,43311,5.38,71384.8,-5.89,-7.05,-7.05,0,*50
1514448070.42,43312,5.44,71376.8,-5.89,-6.93,-6.97,0,*57
1514448071.69,43313,5.38,71358.8,-5.89,-7.05,-6.93,0,*5C
1514448072.96,43314,5.38,71360.8,-5.89,-7.05,-6.93,0,*5B
1514448074.23,43315,5.38,71366.3,-5.89,-7.05,-6.97,0,*5E
1514448075.5,43316,5.38,71374.0,-5.89,-7.05,-6.97,0,*5D
1514448076.75,43317,5.38,71390.3,-5.89,-6.97,-6.85,0,*55
1514448077.98,43318,5.44,71400.5,-5.89,-6.81,-6.81,0,*59
1514448079.19,43319,5.38,71404.5,-5.87,-6.81,-6.81,0,*56
1514448080.41,43320,5.38,71404.5,-5.89,-6.81,-6.73,0,*5F
1514448081.63,43321,5.38,71406.0,-5.89,-6.73,-6.73,0,*53
1514448082.85,43322,5.38,71400.5,-5.89,-6.73,-6.69,0,*5B
1514448084.06,43323,5.38,71394.3,-5.87,-6.81,-6.81,0,*5F
1514448085.26,43324,5.38,71398.0,-5.87,-6.85,-6.81,0,*5C
1514448086.47,43325,5.38,71396.8,-5.87,-6.81,-6.81,0,*59
1514448087.67,43326,5.38,71386.5,-5.87,-6.81,-6.81,0,*5A
1514448088.92,43327,5.38,71374.0,-5.89,-6.85,-6.93,0,*52
1514448090.19,43328,5.38,71366.0,-5.89,-6.97,-6.93,0,*5E
1514448091.44,43329,5.38,71354.8,-5.87,-6.97,-6.97,0,*55
1514448092.71,43330,5.38,71350.5,-5.89,-6.97,-7.05,0,*59
1514448093.98,43331,5.38,71350.8,-5.89,-6.97,-6.93,0,*56
1514448095.23,43332,5.38,71350.3,-5.87,-6.93,-6.93,0,*5F
1514448096.43,43333,5.38,71346.5,-5.87,-6.85,-6.85,0,*5E
1514448097.65,43334,5.44,71336.3,-5.87,-7.19,-7.05,0,*54
1514448098.9,43335,5.38,71344.0,-5.89,-7.11,-7.05,0,*53
1514448100.12,43336,5.44,71338.8,-5.87,-7.05,-7.11,0,*5E
1514448101.37,43337,5.38,71340.3,-5.87,-7.05,-6.97,0,*50
1514448102.62,43338,5.38,71344.3,-5.87,-6.97,-6.97,0,*55
1514448103.83,43339,5.44,71356.3,-5.87,-7.11,-7.11,0,*54
1514448105.07,43340,5.44,71348.0,-5.89,-7.11,-7.05,0,*51
1514448106.34,43341,5.38,71346.5,-5.89,-7.05,-7.05,0,*55
1514448107.54,43342,5.44,71330.8,-5.87,-7.19,-7.19,0,*58
1514448108.77,43343,5.44,71330.3,-5.89,-7.19,-7.19,0,*57
1514448110.01,43344,5.44,71350.3,-5.89,-7.11,-7.05,0,*55
1514448111.29,43345,5.38,71342.5,-5.89,-6.97,-6.93,0,*55
1514448112.53,43346,5.38,71344.0,-5.87,-7.05,-7.05,0,*5C
1514448113.8,43347,5.38,71362.0,-5.89,-7.05,-6.93,0,*5D
1514448115.07,43348,5.38,71370.3,-5.89,-6.97,-6.93,0,*58
1514448116.35,43349,5.38,71382.0,-5.89,-6.97,-6.93,0,*59
1514448117.54,43350,5.38,71370.8,-5.87,-6.85,-6.85,0,*5B
1514448118.79,43351,5.38,71366.3,-5.87,-6.97,-7.05,0,*50
1514448120.01,43352,5.38,71376.8,-5.89,-6.73,-6.73,0,*57
1514448121.23,43353,5.38,71384.0,-5.89,-6.73,-6.81,0,*5B
1514448122.46,43354,5.38,71402.3,-5.89,-6.81,-6.81,0,*51
1514448123.67,43355,5.38,71388.5,-5.87,-6.85,-6.81,0,*5A
1514448124.87,43356,5.38,71412.3,-5.87,-6.81,-6.73,0,*50
1514448126.06,43357,5.38,71436.0,-5.87,-6.73,-6.73,0,*5C
1514448127.27,43358,5.38,71418.3,-5.87,-6.81,-6.81,0,*53
1514448128.52,43359,5.38,71368.8,-5.87,-6.97,-6.93,0,*56
1514448129.72,43360,5.38,71398.5,-5.87,-6.85,-6.85,0,*58
1514448130.94,43361,5.38,71422.8,-5.87,-6.93,-6.85,0,*5E
1514448132.14,43362,5.38,71416.0,-5.87,-6.85,-6.73,0,*53
1514448133.37,43363,5.38,71386.5,-5.89,-6.81,-6.81,0,*55
1514448134.57,43364,5.38,71384.8,-5.87,-6.85,-6.85,0,*5C
1514448135.79,43365,5.44,71396.0,-5.85,-6.89,-6.89,0,*5F
1514448137.03,43366,5.38,71404.8,-5.85,-6.93,-6.89,0,*57
1514448138.26,43367,5.44,71412.5,-5.85,-6.81,-6.81,0,*5D
1514448139.51,43368,5.44,71414.5,-5.87,-6.93,-6.93,0,*50
1514448140.72,43369,5.38,71392.3,-5.87,-7.11,-7.11,0,*51
1514448141.97,43370,5.38,71380.5,-5.89,-6.93,-6.85,0,*50
1514448143.18,43371,5.44,71382.3,-5.87,-7.11,-7.19,0,*50
1514448144.38,43372,5.38,71384.0,-5.87,-7.19,-7.11,0,*53
1514448145.6,43373,5.38,71384.0,-5.85,-7.15,-7.15,0,*58
1514448146.83,43374,5.38,71374.5,-5.85,-7.19,-7.15,0,*53
1514448148.03,43375,5.38,71366.0,-5.87,-7.23,-7.19,0,*55
1514448149.27,43376,5.44,71344.3,-5.87,-7.05,-7.05,0,*5F
1514448150.48,43377,5.38,71358.0,-5.87,-7.19,-7.23,0,*57
1514448151.7,43378,5.38,71370.0,-5.87,-7.19,-7.05,0,*5C
1514448152.9,43379,5.38,71360.3,-5.87,-7.11,-7.11,0,*50
1514448154.12,43380,5.38,71358.8,-5.87,-7.19,-7.05,0,*5B
1514448155.33,43381,5.38,71358.8,-5.87,-7.23,-7.19,0,*5E
1514448156.53,43382,5.38,71360.8,-5.87,-7.23,-7.19,0,*5D
1514448157.73,43383,5.38,71352.8,-5.87,-7.11,-7.11,0,*55
1514448158.98,43384,5.44,71362.3,-5.87,-7.05,-6.97,0,*58
1514448160.23,43385,5.44,71342.0,-5.87,-6.97,-6.93,0,*57
1514448161.48,43386,5.38,71346.8,-5.89,-7.05,-7.11,0,*5B
1514448162.71,43387,5.38,71352.3,-5.89,-7.11,-7.11,0,*5F
1514448163.92,43388,5.38,71346.3,-5.87,-7.19,-7.19,0,*5E
1514448165.12,43389,5.38,71336.5,-5.87,-7.23,-7.19,0,*56
1514448166.36,43390,5.44,71350.3,-5.87,-7.31,-7.31,0,*57
1514448167.59,43391,5.44,71346.8,-5.89,-7.23,-7.19,0,*51
1514448168.83,43392,5.44,71350.5,-5.89,-7.31,-7.19,0,*51
1514448170.04,43393,5.38,71350.3,-5.87,-7.19,-7.19,0,*54
1514448171.27,43394,5.38,71352.8,-5.89,-7.19,-7.19,0,*5D
1514448172.47,43395,5.38,71352.8,-5.87,-7.23,-7.19,0,*5B
1514448173.71,43396,5.44,71340.8,-5.89,-7.31,-7.19,0,*55
1514448174.94,43397,5.38,71336.0,-5.89,-7.23,-7.11,0,*5F
1514448176.15,43398,5.44,71346.3,-5.87,-7.11,-7.11,0,*5F
1514448177.35,43399,5.38,71342.0,-5.87,-7.19,-7.11,0,*56
1514448178.58,43400,5.38,71352.3,-5.89,-7.23,-7.19,0,*5E
1514448179.85,43401,5.38,71358.3,-5.89,-7.31,-7.31,0,*56
1514448181.09,43402,5.38,71356.5,-5.89,-7.31,-7.19,0,*5F
1514448182.3,43403,5.38,71362.3,-5.87,-7.19,-7.11,0,*52
1514448183.55,43404,5.38,71356.8,-5.89,-7.31,-7.19,0,*59
1514448184.82,43405,5.38,71356.0,-5.89,-7.43,-7.35,0,*53
1514448186.07,43406,5.38,71380.3,-5.89,-7.23,-7.31,0,*52
1514448187.27,43407,5.38,71400.8,-5.87,-7.19,-7.19,0,*5E
1514448188.5,43408,5.38,71414.5,-5.89,-7.23,-7.23,0,*5F
1514448189.73,43409,5.44,71426.5,-5.91,-7.11,-7.01,0,*56
1514448190.99,43410,5.38,71420.5,-5.89,-7.05,-7.05,0,*56
1514448192.25,43411,5.38,71406.0,-5.89,-7.05,-7.05,0,*57
1514448193.48,43412,5.38,71390.3,-5.89,-7.11,-7.19,0,*5C
1514448194.69,43413,5.38,71394.0,-5.87,-7.11,-7.11,0,*5B
1514448195.92,43414,5.38,71398.3,-5.89,-7.19,-7.23,0,*5B
1514448197.15,43415,5.44,71408.8,-5.89,-7.19,-7.11,0,*5B
1514448198.36,43416,5.38,71414.8,-5.87,-7.11,-7.19,0,*56
1514448199.56,43417,5.44,71424.3,-5.87,-7.11,-7.19,0,*57
1514448200.83,43418,5.44,71422.0,-5.89,-7.05,-6.97,0,*54
1514448202.1,43419,5.38,71424.0,-5.89,-7.05,-6.97,0,*55
1514448203.37,43420,5.44,71396.5,-5.89,-6.93,-6.97,0,*51
1514448204.65,43421,5.44,71388.3,-5.89,-6.93,-6.93,0,*54
1514448205.92,43422,5.38,71396.3,-5.89,-7.05,-6.97,0,*5D
1514448207.16,43423,5.44,71404.8,-5.87,-7.05,-6.97,0,*52
1514448208.41,43424,5.44,71420.0,-5.87,-7.05,-6.93,0,*51
1514448209.68,43425,5.38,71396.3,-5.89,-6.97,-6.97,0,*50
1514448210.91,43426,5.38,71360.3,-5.87,-6.93,-6.85,0,*5A
1514448212.12,43427,5.38,71322.5,-5.87,-7.11,-7.11,0,*5C
1514448213.39,43428,5.44,71308.3,-5.89,-7.05,-6.97,0,*57
1514448214.64,43429,5.44,71362.0,-5.87,-7.05,-6.97,0,*58
1514448215.88,43430,5.38,71354.5,-5.89,-7.19,-7.05,0,*59
1514448217.08,43431,5.44,71350.5,-5.87,-7.23,-7.11,0,*5A
1514448218.31,43432,5.38,71344.0,-5.89,-7.19,-7.23,0,*5F
1514448219.56,43433,5.38,71348.0,-5.87,-6.97,-6.97,0,*59
1514448220.81,43434,5.38,71368.0,-5.87,-6.97,-6.97,0,*5E
1514448222.07,43435,5.38,71370.0,-5.89,-6.93,-6.81,0,*52
1514448223.3,43436,5.38,71368.0,-5.89,-6.85,-6.81,0,*56
1514448224.56,43437,5.38,71370.3,-5.89,-7.05,-7.05,0,*53
1514448225.8,43438,5.44,71364.8,-5.87,-7.05,-7.05,0,*52
1514448227.0,43439,5.44,71368.5,-5.87,-7.23,-7.23,0,*53
1514448228.21,43440,5.44,71374.5,-5.87,-7.11,-7.19,0,*55
1514448229.46,43441,5.44,71364.5,-5.87,-6.97,-6.97,0,*5C
1514448230.7,43442,5.44,71352.0,-5.87,-7.05,-7.05,0,*5F
1514448231.9,43443,5.44,71336.5,-5.87,-7.11,-7.11,0,*5E
1514448233.15,43444,5.38,71344.0,-5.89,-7.23,-7.31,0,*54
1514448234.36,43445,5.44,71334.5,-5.87,-7.23,-7.23,0,*58
1514448235.6,43446,5.38,71324.5,-5.87,-7.31,-7.31,0,*5B
1514448236.81,43447,5.44,71328.0,-5.87,-7.19,-7.19,0,*5A
1514448238.01,43448,5.38,71330.3,-5.87,-7.19,-7.19,0,*55
1514448239.24,43449,5.44,71330.8,-5.89,-7.11,-7.19,0,*52
1514448240.47,43450,5.44,71314.5,-5.89,-7.19,-7.19,0,*52
1514448241.7,43451,5.38,71338.8,-5.89,-7.19,-7.11,0,*5B
1514448242.95,43452,5.38,71344.5,-5.87,-6.97,-6.97,0,*5E
1514448244.22,43453,5.38,71352.8,-5.89,-6.97,-6.97,0,*51
1514448245.48,43454,5.38,71332.8,-5.89,-7.05,-7.05,0,*56
1514448246.71,43455,5.44,71338.0,-5.89,-7.19,-7.19,0,*57
1514448247.92,43456,5.38,71338.0,-5.87,-7.11,-7.19,0,*52
1514448249.14,43457,5.38,71330.3,-5.89,-7.19,-7.19,0,*55
1514448250.38,43458,5.38,71338.0,-5.85,-7.19,-7.05,0,*5B
1514448251.61,43459,5.44,71332.3,-5.89,-7.19,-7.19,0,*5B
1514448252.84,43460,5.44,71352.3,-5.89,-7.23,-7.23,0,*51
1514448254.07,43461,5.44,71344.0,-5.89,-7.11,-7.11,0,*50
1514448255.32,43462,5.38,71340.5,-5.89,-7.05,-7.11,0,*56
1514448256.59,43463,5.44,71338.3,-5.89,-7.05,-6.97,0,*58
1514448257.82,43464,5.44,71332.8,-5.89,-7.19,-7.11,0,*5D
1514448259.07,43465,5.44,71330.3,-5.89,-7.19,-7.05,0,*59
1514448260.27,43466,5.38,71328.3,-5.87,-7.19,-7.11,0,*51
1514448261.5,43467,5.44,71340.8,-5.89,-7.11,-7.11,0,*56
1514448262.74,43468,5.38,71356.5,-5.87,-7.05,-7.05,0,*57
1514448264.02,43469,5.44,71366.0,-5.89,-6.97,-6.97,0,*58
1514448265.29,43470,5.44,71374.0,-5.89,-6.93,-6.93,0,*50
1514448266.54,43471,5.44,71392.8,-5.87,-6.93,-6.93,0,*5F
1514448267.77,43472,5.44,71384.0,-5.89,-6.81,-6.73,0,*5F
1514448268.99,43473,5.44,71382.8,-5.89,-6.85,-6.85,0,*53
1514448270.26,43474,5.38,71388.0,-5.89,-6.93,-6.97,0,*50
1514448271.53,43475,5.44,71386.0,-5.89,-7.05,-6.97,0,*5F
1514448272.8,43476,5.44,71384.3,-5.89,-7.05,-6.97,0,*5C
1514448274.08,43477,5.44,71386.5,-5.89,-6.93,-6.97,0,*53
1514448275.32,43478,5.44,71378.3,-5.89,-7.11,-7.05,0,*5D
1514448276.58,43479,5.44,71398.0,-5.89,-7.05,-7.05,0,*59
1514448277.8,43480,5.38,71396.5,-5.87,-7.11,-7.05,0,*54
1514448279.08,43481,5.44,71382.3,-5.89,-7.05,-6.97,0,*54
1514448280.27,43482,5.44,71356.3,-5.87,-6.85,-6.85,0,*53
1514448281.52,43483,5.44,71316.3,-5.87,-6.97,-6.97,0,*52
1514448282.76,43484,5.38,71296.8,-5.87,-7.05,-7.05,0,*55
1514448283.96,43485,5.44,71320.5,-5.87,-6.85,-6.85,0,*54
1514448285.23,43486,5.44,71328.0,-5.89,-6.93,-6.93,0,*59
1514448286.48,43487,5.38,71334.0,-5.87,-6.97,-6.93,0,*52
1514448287.74,43488,5.44,71332.0,-5.87,-6.93,-6.93,0,*59
1514448288.99,43489,5.38,71328.8,-5.87,-6.93,-6.93,0,*58
1514448290.24,43490,5.44,71340.5,-5.87,-6.93,-6.93,0,*50
1514448291.49,43491,5.44,71354.8,-5.87,-6.93,-6.93,0,*51
1514448292.76,43492,5.44,71354.8,-5.89,-6.97,-6.97,0,*5C
1514448293.98,43493,5.44,71352.8,-5.89,-6.85,-6.85,0,*5D
1514448295.26,43494,5.38,71354.5,-5.89,-6.93,-6.93,0,*5A
1514448296.45,43495,5.44,71358.0,-5.87,-6.85,-6.85,0,*55
1514448297.66,43496,5.44,71360.8,-5.87,-6.73,-6.81,0,*5B
1514448298.86,43497,5.44,71356.3,-5.87,-6.81,-6.85,0,*53
1514448300.11,43498,5.38,71352.8,-5.87,-6.97,-6.93,0,*5C
1514448301.36,43499,5.44,71356.3,-5.87,-6.97,-6.97,0,*59
1514448302.55,43500,5.44,71362.8,-5.87,-6.85,-6.85,0,*58
1514448303.79,43501,5.44,71366.8,-5.87,-7.05,-7.05,0,*59
1514448305.07,43502,5.44,71358.5,-5.85,-6.93,-7.01,0,*52
1514448306.34,43503,5.44,71352.3,-5.85,-6.93,-7.01,0,*53
1514448307.6,43504,5.44,71348.0,-5.85,-7.05,-7.05,0,*5E
1514448308.82,43505,5.44,71348.3,-5.85,-7.19,-7.19,0,*5F
1514448310.06,43506,5.44,71354.0,-5.85,-7.15,-7.05,0,*5D
1514448311.31,43507,5.44,71356.8,-5.87,-7.05,-6.97,0,*55
1514448312.53,43508,5.38,71358.8,-5.89,-6.85,-6.81,0,*5A
1514448313.78,43509,5.44,71348.8,-5.87,-6.93,-6.93,0,*51
1514448315.04,43510,5.44,71358.5,-5.87,-6.93,-6.93,0,*59
1514448316.23,43511,5.38,71376.0,-5.87,-6.85,-6.85,0,*58
1514448317.47,43512,5.38,71370.0,-5.87,-7.05,-7.05,0,*5B
1514448318.68,43513,5.44,71364.5,-5.87,-7.11,-7.11,0,*5A
1514448319.95,43514,5.38,71366.5,-5.85,-7.01,-6.93,0,*55
1514448321.17,43515,5.44,71374.8,-5.83,-6.93,-6.89,0,*53
1514448322.4,43516,5.44,71370.3,-5.87,-6.93,-6.85,0,*58
1514448323.67,43517,5.44,71364.3,-5.85,-7.05,-6.93,0,*52
1514448324.89,43518,5.44,71354.3,-5.85,-7.15,-7.15,0,*53
1514448326.16,43519,5.44,71376.5,-5.85,-6.93,-6.93,0,*52
1514448327.38,43520,5.44,71368.8,-5.85,-6.89,-6.89,0,*58
1514448328.64,43521,5.44,71356.8,-5.85,-7.01,-7.05,0,*5D
1514448329.91,43522,5.44,71344.8,-5.85,-7.05,-7.01,0,*5E
1514448331.13,43523,5.38,71358.5,-5.85,-6.81,-6.81,0,*5B
1514448332.36,43524,5.44,71360.8,-5.85,-6.81,-6.81,0,*5C
1514448333.58,43525,5.44,71354.3,-5.85,-6.77,-6.69,0,*52
1514448334.82,43526,5.44,71344.3,-5.85,-6.69,-6.63,0,*54
1514448336.06,43527,5.44,71348.5,-5.83,-7.01,-7.01,0,*59
1514448337.28,43528,5.44,71358.5,-5.85,-7.15,-7.15,0,*50
1514448338.55,43529,5.44,71356.5,-5.85,-7.05,-7.05,0,*51
1514448339.81,43530,5.44,71368.5,-5.85,-7.01,-7.01,0,*59
1514448341.06,43531,5.44,71368.0,-5.83,-7.05,-7.01,0,*5A
1514448342.33,43532,5.44,71354.3,-5.85,-7.01,-7.01,0,*5B
1514448343.6,43533,5.44,71366.0,-5.85,-6.93,-6.93,0,*5A
1514448344.85,43534,5.44,71382.5,-5.85,-6.93,-6.81,0,*5E
1514448346.04,43535,5.44,71390.0,-5.83,-6.89,-6.89,0,*5A
1514448347.27,43536,5.44,71386.8,-5.85,-6.81,-6.77,0,*56
1514448348.47,43537,5.44,71380.0,-5.83,-6.89,-6.81,0,*50
1514448349.66,43538,5.44,71390.0,-5.83,-6.77,-6.89,0,*56
1514448350.89,43539,5.44,71390.3,-5.85,-6.77,-6.77,0,*50
1514448352.08,43540,5.44,71364.0,-5.83,-6.81,-6.77,0,*51
1514448353.28,43541,5.44,71364.5,-5.83,-6.77,-6.69,0,*56
1514448354.5,43542,5.44,71374.3,-5.85,-6.81,-6.89,0,*54
1514448355.72,43543,5.44,71368.8,-5.85,-6.81,-6.77,0,*54
1514448356.91,43544,5.38,71378.8,-5.83,-6.69,-6.69,0,*5C
1514448358.1,43545,5.44,71388.8,-5.83,-6.77,-6.69,0,*52
1514448359.34,43546,5.44,71398.0,-5.85,-6.63,-6.59,0,*51
1514448360.53,43547,5.44,71400.3,-5.83,-6.69,-6.69,0,*5F
1514448361.78,43548,5.44,71402.0,-5.85,-6.59,-6.63,0,*5F
1514448363.02,43549,5.44,71422.5,-5.83,-6.63,-6.63,0,*51
1514448364.22,43550,5.44,71430.0,-5.83,-6.59,-6.59,0,*59
1514448365.41,43551,5.44,71430.5,-5.83,-6.59,-6.59,0,*58
1514448366.64,43552,5.44,71400.3,-5.77,-6.59,-6.55,0,*5C
1514448367.84,43553,5.44,71404.3,-5.79,-6.73,-6.59,0,*57
1514448369.03,43554,5.44,71396.5,-5.79,-6.73,-6.73,0,*58
1514448370.26,43555,5.44,71392.0,-5.79,-6.73,-6.63,0,*58
1514448371.46,43556,5.44,71390.8,-5.79,-6.73,-6.77,0,*5E
1514448372.65,43557,5.44,71400.3,-5.79,-6.85,-6.77,0,*56
1514448373.86,43558,5.44,71370.8,-5.79,-7.11,-7.11,0,*54
1514448375.09,43559,5.44,71362.5,-5.79,-7.01,-7.11,0,*54
1514448376.29,43560,5.44,71368.5,-5.79,-7.15,-7.15,0,*5F
1514448377.54,43561,5.44,71374.5,-5.79,-7.01,-7.01,0,*5E
1514448378.78,43562,5.44,71368.8,-5.79,-7.01,-7.01,0,*5D
1514448380.01,43563,5.44,71358.3,-5.79,-7.11,-6.97,0,*53
1514448381.24,43564,5.44,71344.3,-5.79,-6.97,-6.85,0,*58
1514448382.44,43565,5.44,71342.5,-5.79,-6.77,-6.77,0,*5A
1514448383.64,43566,5.44,71354.5,-5.79,-6.85,-6.73,0,*50
1514448384.83,43567,5.44,71368.5,-5.79,-6.73,-6.73,0,*58
1514448386.03,43568,5.44,71374.3,-5.79,-6.85,-6.77,0,*5A
1514448387.28,43569,5.44,71348.5,-5.77,-6.97,-6.85,0,*5B
1514448388.5,43570,5.44,71340.8,-5.79,-6.97,-6.85,0,*5D
1514448389.78,43571,5.44,71332.0,-5.77,-6.97,-6.97,0,*51
1514448391.02,43572,5.44,71334.3,-5.79,-7.01,-7.01,0,*5C
1514448392.25,43573,5.44,71344.8,-5.79,-7.11,-7.01,0,*5C
1514448393.5,43574,5.44,71346.5,-5.79,-7.01,-6.97,0,*54
1514448394.75,43575,5.44,71342.3,-5.79,-6.97,-7.01,0,*55
1514448395.95,43576,5.44,71344.8,-5.79,-6.89,-6.89,0,*58
1514448397.2,43577,5.44,71348.3,-5.77,-6.97,-6.85,0,*54
1514448398.4,43578,5.44,71354.5,-5.79,-6.77,-6.77,0,*56
1514448399.6,43579,5.44,71356.3,-5.79,-6.77,-6.73,0,*53
1514448400.79,43580,5.44,71364.5,-5.79,-6.85,-6.85,0,*51
1514448402.0,43581,5.44,71370.3,-5.75,-6.81,-6.81,0,*5C
1514448403.25,43582,5.44,71368.0,-5.79,-6.97,-6.97,0,*53
1514448404.5,43583,5.44,71374.0,-5.77,-7.11,-7.01,0,*5D
1514448405.75,43584,5.44,71384.5,-5.79,-7.01,-7.01,0,*55
1514448406.95,43585,5.44,71382.5,-5.79,-6.89,-6.89,0,*54
1514448408.17,43586,5.44,71376.8,-5.79,-6.97,-6.89,0,*58
1514448409.42,43587,5.44,71380.0,-5.79,-6.97,-6.97,0,*56
1514448410.64,43588,5.44,71378.5,-5.79,-7.01,-6.89,0,*58
1514448411.87,43589,5.44,71392.5,-5.79,-6.89,-6.97,0,*57
1514448413.09,43590,5.44,71388.0,-5.79,-6.97,-6.89,0,*5F
1514448414.29,43591,5.44,71376.8,-5.79,-6.85,-6.85,0,*51
1514448415.51,43592,5.44,71366.0,-5.77,-6.77,-6.85,0,*51
1514448416.71,43593,5.44,71356.5,-5.79,-6.89,-6.89,0,*53
1514448417.96,43594,5.44,71368.3,-5.77,-6.89,-6.97,0,*55
1514448419.18,43595,5.44,71362.8,-5.79,-7.11,-7.01,0,*54
1514448420.43,43596,5.44,71352.0,-5.77,-7.01,-6.89,0,*59
1514448421.64,43597,5.44,71350.3,-5.79,-7.11,-7.11,0,*57
1514448422.86,43598,5.44,71350.8,-5.79,-7.11,-7.01,0,*59
1514448424.14,43599,5.44,71366.3,-5.77,-6.97,-7.01,0,*59
1514448425.36,43600,5.44,71352.5,-5.79,-6.97,-6.89,0,*55
1514448426.59,43601,5.44,71356.0,-5.79,-6.85,-6.97,0,*58
1514448427.79,43602,5.44,71364.5,-5.79,-6.77,-6.77,0,*58
1514448428.98,43603,5.44,71370.0,-5.79,-6.85,-6.85,0,*59
1514448430.18,43604,5.44,71366.5,-5.79,-6.89,-6.89,0,*5E
1514448431.43,43605,5.44,71356.5,-5.79,-7.01,-6.97,0,*51
1514448432.68,43606,5.44,71352.0,-5.79,-7.01,-6.97,0,*52
1514448433.87,43607,5.44,71332.3,-5.79,-6.85,-6.77,0,*50
1514448435.09,43608,5.44,71322.0,-5.77,-6.85,-6.73,0,*55
1514448436.36,43609,5.44,71208.3,-5.77,-7.01,-7.01,0,*5D
1514448437.57,43610,5.44,71288.0,-5.79,-7.15,-7.11,0,*5F
1514448438.78,43611,5.44,71306.0,-5.79,-7.11,-7.11,0,*5A
1514448440.02,43612,5.44,71312.0,-5.79,-7.01,-6.97,0,*57
1514448441.22,43613,5.44,71322.3,-5.79,-6.89,-6.89,0,*58
1514448442.5,43614,5.44,71344.8,-5.77,-6.97,-6.97,0,*51
1514448443.72,43615,5.44,71344.3,-5.77,-6.89,-6.89,0,*50
1514448444.91,43616,5.44,71340.8,-5.79,-6.85,-6.85,0,*5D
1514448446.16,43617,5.44,71342.3,-5.79,-6.97,-6.97,0,*5C
1514448447.37,43618,5.44,71336.5,-5.79,-6.77,-6.77,0,*53
1514448448.59,43619,5.44,71324.0,-5.79,-6.77,-6.63,0,*57
1514448449.84,43620,5.44,71316.5,-5.79,-6.63,-6.63,0,*58
1514448451.08,43621,5.44,71320.0,-5.79,-6.63,-6.63,0,*59
1514448452.32,43622,5.44,71314.3,-5.77,-6.63,-6.73,0,*55
1514448453.52,43623,5.44,71320.0,-5.79,-6.85,-6.73,0,*52
1514448454.76,43624,5.44,71304.3,-5.77,-6.89,-6.97,0,*5D
1514448456.01,43625,5.44,71320.3,-5.79,-7.01,-6.97,0,*53
1514448457.26,43626,5.44,71328.5,-5.77,-7.11,-7.01,0,*51
1514448458.46,43627,5.44,71328.3,-5.79,-7.11,-7.15,0,*5B
1514448459.69,43628,5.44,71326.5,-5.77,-7.15,-7.11,0,*5A
1514448460.92,43629,5.44,71346.5,-5.79,-7.11,-7.01,0,*50
1514448462.13,43630,5.44,71368.3,-5.79,-7.11,-7.11,0,*59
1514448463.4,43631,5.44,71380.8,-5.77,-6.97,-7.01,0,*58
1514448464.63,43632,5.44,71380.5,-5.79,-6.97,-6.85,0,*58
1514448465.82,43633,5.44,71382.3,-5.79,-6.89,-6.89,0,*5A
1514448467.02,43634,5.44,71372.0,-5.79,-6.89,-6.89,0,*5D
1514448468.23,43635,5.44,71352.3,-5.79,-7.11,-7.11,0,*5C
1514448469.43,43636,5.44,71350.5,-5.79,-7.23,-7.11,0,*5E
1514448470.64,43637,5.44,71362.0,-5.79,-7.15,-7.11,0,*5A
1514448471.84,43638,5.44,71348.0,-5.79,-7.15,-7.15,0,*51
1514448473.07,43639,5.44,71354.5,-5.79,-7.11,-7.01,0,*51
1514448474.26,43640,5.44,71354.5,-5.79,-6.89,-6.89,0,*5E
1514448475.46,43641,5.44,71340.3,-5.79,-6.89,-6.89,0,*5F
1514448476.68,43642,5.44,71340.0,-5.79,-6.89,-6.97,0,*53
1514448477.88,43643,5.44,71340.0,-5.79,-6.77,-6.77,0,*5D
1514448479.08,43644,5.44,71340.5,-5.79,-6.89,-6.89,0,*5A
1514448480.33,43645,5.44,71336.8,-5.77,-6.97,-6.89,0,*5A
1514448481.53,43646,5.44,71332.0,-5.79,-6.89,-6.89,0,*58
1514448482.76,43647,5.44,71322.5,-5.79,-6.97,-6.89,0,*56
1514448483.95,43648,5.44,71328.3,-5.79,-6.89,-6.89,0,*56
1514448485.18,43649,5.44,71336.0,-5.79,-6.89,-6.97,0,*58
1514448486.45,43650,5.44,71334.0,-5.77,-6.97,-6.97,0,*51
1514448487.67,43651,5.44,71310.5,-5.77,-6.77,-6.85,0,*5D
1514448488.87,43652,5.44,71298.5,-5.79,-6.89,-6.77,0,*5C
1514448490.14,43653,5.44,71308.3,-5.77,-7.01,-7.01,0,*52
1514448491.39,43654,5.44,71320.8,-5.77,-6.89,-6.97,0,*5A
1514448492.58,43655,5.44,71314.5,-5.79,-6.89,-6.85,0,*56
1514448493.81,43656,5.44,71306.3,-5.77,-6.85,-6.77,0,*5A
1514448495.03,43657,5.44,71306.0,-5.77,-6.85,-6.85,0,*56
1514448496.25,43658,5.44,71314.8,-5.77,-6.77,-6.77,0,*59
1514448497.45,43659,5.44,71312.0,-5.79,-6.73,-6.73,0,*56
1514448498.67,43660,5.44,71308.5,-5.77,-6.73,-6.73,0,*52
1514448499.89,43661,5.44,71314.5,-5.77,-6.85,-6.85,0,*53
1514448501.11,43662,5.44,71312.0,-5.77,-6.85,-6.85,0,*50
1514448502.33,43663,5.44,71330.0,-5.77,-6.77,-6.77,0,*51
1514448503.55,43664,5.44,71320.3,-5.77,-6.73,-6.73,0,*56
1514448504.75,43665,5.44,71316.5,-5.75,-6.73,-6.81,0,*58
1514448505.96,43666,5.44,71320.5,-5.75,-6.81,-6.73,0,*5B
1514448507.16,43667,5.44,71328.5,-5.75,-6.81,-6.73,0,*5A
1514448508.42,43668,5.44,71328.5,-5.77,-6.63,-6.63,0,*5A
1514448509.69,43669,5.44,71346.3,-5.77,-6.63,-6.63,0,*5B
1514448510.96,43670,5.44,71342.3,-5.77,-6.63,-6.63,0,*53
1514448512.18,43671,5.44,71342.3,-5.77,-6.85,-6.73,0,*5B
1514448513.43,43672,5.44,71332.8,-5.77,-7.01,-7.11,0,*50
1514448514.67,43673,5.44,71342.8,-5.75,-7.05,-7.05,0,*52
1514448515.92,43674,5.44,71356.5,-5.75,-6.97,-6.93,0,*51
1514448517.14,43675,5.44,71360.8,-5.75,-6.93,-6.85,0,*53
1514448518.41,43676,5.44,71356.0,-5.77,-7.01,-6.97,0,*5B